[Date Prev][Date Next][Thread Prev][Thread Next] - [Date Index][Thread Index][Author Index]

2 Line ISS Keps 11-25



ISS 
1 25544U 98067A   04331.23404170  .00027249  00000-0  22025-3 0  2252
2 25544  51.6391 218.7492 0004466  48.2034  45.2022 15.70610775343779
----
Via the sarex mailing list at AMSAT.ORG courtesy of AMSAT-NA.
To unsubscribe, send "unsubscribe sarex" to Majordomo@amsat.org



AMSAT Top AMSAT Home